Time,TemperatureF,DewpointF,PressureIn,WindDirection,WindDirectionDegrees,WindSpeedMPH,WindSpeedGustMPH,Humidity,HourlyPrecipIn,Conditions,Clouds,dailyrainin,SoftwareType,DateUTC
2013-02-16 00:12:00,37.6,20.0,30.34,East,91,1.0,1.0,49,0.00,,,0.00,weatherlink.com 1.10,2013-02-16 07:12:00,
2013-02-16 00:27:00,37.2,19.0,30.34,NE,41,0.0,2.0,48,0.00,,,0.00,weatherlink.com 1.10,2013-02-16 07:27:00,
2013-02-16 00:42:00,36.6,20.0,30.36,East,95,0.0,2.0,51,0.00,,,0.00,weatherlink.com 1.10,2013-02-16 07:42:00,
2013-02-16 00:58:00,36.5,19.0,30.37,West,269,1.0,3.0,50,0.00,,,0.00,weatherlink.com 1.10,2013-02-16 07:58:00,
2013-02-16 01:13:00,35.4,19.0,30.38,WNW,284,0.0,1.0,51,0.00,,,0.00,weatherlink.com 1.10,2013-02-16 08:13:00,
2013-02-16 01:28:00,35.0,19.0,30.37,WNW,294,0.0,1.0,53,0.00,,,0.00,weatherlink.com 1.10,2013-02-16 08:28:00,
2013-02-16 01:43:00,35.0,19.0,30.38,WNW,293,0.0,1.0,53,0.00,,,0.00,weatherlink.com 1.10,2013-02-16 08:43:00,
2013-02-16 01:58:00,35.1,19.0,30.37,WNW,287,0.0,1.0,53,0.00,,,0.00,weatherlink.com 1.10,2013-02-16 08:58:00,
2013-02-16 02:13:00,34.7,19.0,30.37,WNW,287,1.0,1.0,53,0.00,,,0.00,weatherlink.com 1.10,2013-02-16 09:13:00,
2013-02-16 02:28:00,34.4,19.0,30.37,NW,326,0.0,0.0,54,0.00,,,0.00,weatherlink.com 1.10,2013-02-16 09:28:00,
2013-02-16 02:43:00,34.0,19.0,30.37,NE,44,0.0,1.0,55,0.00,,,0.00,weatherlink.com 1.10,2013-02-16 09:43:00,
2013-02-16 02:58:00,33.5,19.0,30.37,NE,44,0.0,1.0,56,0.00,,,0.00,weatherlink.com 1.10,2013-02-16 09:58:00,
2013-02-16 03:13:00,33.5,19.0,30.37,NE,44,0.0,1.0,56,0.00,,,0.00,weatherlink.com 1.10,2013-02-16 10:13:00,
2013-02-16 03:28:00,32.8,20.0,30.37,NE,44,0.0,0.0,59,0.00,,,0.00,weatherlink.com 1.10,2013-02-16 10:28:00,
2013-02-16 03:43:00,32.2,19.0,30.37,NE,44,0.0,0.0,59,0.00,,,0.00,weatherlink.com 1.10,2013-02-16 10:43:00,
2013-02-16 04:13:00,31.4,20.0,30.37,NE,44,0.0,0.0,62,0.00,,,0.00,weatherlink.com 1.10,2013-02-16 11:13:00,
2013-02-16 04:28:00,32.5,19.0,30.38,NE,44,0.0,1.0,59,0.00,,,0.00,weatherlink.com 1.10,2013-02-16 11:28:00,
2013-02-16 04:43:00,32.5,19.0,30.39,NE,44,0.0,1.0,59,0.00,,,0.00,weatherlink.com 1.10,2013-02-16 11:43:00,
2013-02-16 04:58:00,31.6,19.0,30.39,NE,44,0.0,0.0,61,0.00,,,0.00,weatherlink.com 1.10,2013-02-16 11:58:00,
2013-02-16 05:13:00,31.6,19.0,30.39,NE,44,1.0,1.0,61,0.00,,,0.00,weatherlink.com 1.10,2013-02-16 12:13:00,
2013-02-16 05:28:00,31.2,20.0,30.39,NE,44,0.0,0.0,63,0.00,,,0.00,weatherlink.com 1.10,2013-02-16 12:28:00,
2013-02-16 05:43:00,31.4,20.0,30.39,NE,45,0.0,0.0,62,0.00,,,0.00,weatherlink.com 1.10,2013-02-16 12:43:00,
2013-02-16 05:58:00,31.3,18.0,30.40,NE,44,0.0,1.0,58,0.00,,,0.00,weatherlink.com 1.10,2013-02-16 12:58:00,
2013-02-16 06:13:00,30.7,19.0,30.40,NE,44,0.0,1.0,61,0.00,,,0.00,weatherlink.com 1.10,2013-02-16 13:13:00,
2013-02-16 06:28:00,30.6,18.0,30.41,NE,44,0.0,1.0,59,0.00,,,0.00,weatherlink.com 1.10,2013-02-16 13:28:00,
2013-02-16 06:44:00,30.2,18.0,30.41,NE,44,0.0,1.0,61,0.00,,,0.00,weatherlink.com 1.10,2013-02-16 13:44:00,
2013-02-16 06:59:00,28.9,18.0,30.42,NE,44,0.0,0.0,64,0.00,,,0.00,weatherlink.com 1.10,2013-02-16 13:59:00,
2013-02-16 07:14:00,30.6,20.0,30.42,NE,44,0.0,1.0,64,0.00,,,0.00,weatherlink.com 1.10,2013-02-16 14:14:00,
2013-02-16 07:29:00,34.9,20.0,30.43,NE,44,0.0,0.0,56,0.00,,,0.00,weatherlink.com 1.10,2013-02-16 14:29:00,
2013-02-16 07:43:00,38.2,21.0,30.43,NE,44,0.0,1.0,50,0.00,,,0.00,weatherlink.com 1.10,2013-02-16 14:43:00,
2013-02-16 07:58:00,37.2,18.0,30.43,ENE,67,2.0,3.0,47,0.00,,,0.00,weatherlink.com 1.10,2013-02-16 14:58:00,
2013-02-16 08:14:00,37.3,19.0,30.44,ENE,61,1.0,2.0,48,0.00,,,0.00,weatherlink.com 1.10,2013-02-16 15:14:00,
2013-02-16 08:29:00,38.9,20.0,30.45,NE,50,1.0,2.0,47,0.00,,,0.00,weatherlink.com 1.10,2013-02-16 15:29:00,
2013-02-16 08:44:00,40.2,21.0,30.44,ESE,109,0.0,2.0,46,0.00,,,0.00,weatherlink.com 1.10,2013-02-16 15:44:00,
2013-02-16 08:59:00,42.2,22.0,30.44,ENE,61,0.0,2.0,44,0.00,,,0.00,weatherlink.com 1.10,2013-02-16 15:59:00,
2013-02-16 09:14:00,43.9,23.0,30.44,ESE,120,2.0,3.0,43,0.00,,,0.00,weatherlink.com 1.10,2013-02-16 16:14:00,
2013-02-16 09:29:00,45.1,23.0,30.44,ENE,58,3.0,3.0,42,0.00,,,0.00,weatherlink.com 1.10,2013-02-16 16:29:00,
2013-02-16 09:44:00,46.5,23.0,30.43,ESE,107,3.0,4.0,39,0.00,,,0.00,weatherlink.com 1.10,2013-02-16 16:44:00,
2013-02-16 09:59:00,46.9,23.0,30.43,SSE,167,2.0,4.0,39,0.00,,,0.00,weatherlink.com 1.10,2013-02-16 16:59:00,
2013-02-16 10:14:00,48.3,23.0,30.43,SE,140,0.0,4.0,37,0.00,,,0.00,weatherlink.com 1.10,2013-02-16 17:14:00,
2013-02-16 10:29:00,49.8,22.0,30.43,SE,136,0.0,3.0,34,0.00,,,0.00,weatherlink.com 1.10,2013-02-16 17:29:00,
2013-02-16 10:44:00,51.3,21.0,30.42,NE,50,2.0,3.0,30,0.00,,,0.00,weatherlink.com 1.10,2013-02-16 17:44:00,
2013-02-16 10:59:00,52.6,18.0,30.41,NNE,19,2.0,4.0,25,0.00,,,0.00,weatherlink.com 1.10,2013-02-16 17:59:00,
2013-02-16 11:14:00,53.8,16.0,30.41,SE,133,2.0,3.0,22,0.00,,,0.00,weatherlink.com 1.10,2013-02-16 18:14:00,
2013-02-16 11:29:00,55.3,15.0,30.40,NW,326,2.0,4.0,20,0.00,,,0.00,weatherlink.com 1.10,2013-02-16 18:29:00,
2013-02-16 11:44:00,55.3,15.0,30.39,ESE,112,5.0,5.0,20,0.00,,,0.00,weatherlink.com 1.10,2013-02-16 18:44:00,
2013-02-16 12:00:00,56.2,15.0,30.37,NNE,25,2.0,4.0,20,0.00,,,0.00,weatherlink.com 1.10,2013-02-16 19:00:00,
2013-02-16 12:14:00,57.9,14.0,30.36,ESE,122,2.0,6.0,18,0.00,,,0.00,weatherlink.com 1.10,2013-02-16 19:14:00,
2013-02-16 12:29:00,57.9,16.0,30.34,SSW,205,2.0,3.0,19,0.00,,,0.00,weatherlink.com 1.10,2013-02-16 19:29:00,
2013-02-16 12:45:00,58.0,16.0,30.33,East,79,1.0,5.0,19,0.00,,,0.00,weatherlink.com 1.10,2013-02-16 19:45:00,
2013-02-16 12:59:00,57.8,16.0,30.32,ESE,109,2.0,5.0,19,0.00,,,0.00,weatherlink.com 1.10,2013-02-16 19:59:00,
2013-02-16 13:14:00,59.4,16.0,30.30,ENE,72,2.0,4.0,18,0.00,,,0.00,weatherlink.com 1.10,2013-02-16 20:14:00,
2013-02-16 13:29:00,59.5,16.0,30.29,NNW,328,1.0,8.0,18,0.00,,,0.00,weatherlink.com 1.10,2013-02-16 20:29:00,
2013-02-16 13:45:00,60.3,16.0,30.28,South,176,2.0,4.0,18,0.00,,,0.00,weatherlink.com 1.10,2013-02-16 20:45:00,
2013-02-16 14:00:00,61.1,16.0,30.27,SW,228,2.0,7.0,17,0.00,,,0.00,weatherlink.com 1.10,2013-02-16 21:00:00,
2013-02-16 14:15:00,60.7,15.0,30.26,SE,125,5.0,8.0,17,0.00,,,0.00,weatherlink.com 1.10,2013-02-16 21:15:00,
2013-02-16 14:30:00,60.7,15.0,30.25,SSE,153,3.0,9.0,17,0.00,,,0.00,weatherlink.com 1.10,2013-02-16 21:30:00,
2013-02-16 14:45:00,60.8,14.0,30.24,NNW,341,0.0,10.0,16,0.00,,,0.00,weatherlink.com 1.10,2013-02-16 21:45:00,
2013-02-16 15:00:00,61.3,15.0,30.23,North,356,1.0,6.0,16,0.00,,,0.00,weatherlink.com 1.10,2013-02-16 22:00:00,
2013-02-16 15:15:00,61.9,14.0,30.22,South,175,1.0,8.0,15,0.00,,,0.00,weatherlink.com 1.10,2013-02-16 22:15:00,
2013-02-16 15:30:00,62.6,14.0,30.21,East,90,5.0,5.0,15,0.00,,,0.00,weatherlink.com 1.10,2013-02-16 22:30:00,
2013-02-16 15:45:00,62.2,14.0,30.21,ESE,112,1.0,8.0,15,0.00,,,0.00,weatherlink.com 1.10,2013-02-16 22:45:00,
2013-02-16 16:00:00,62.2,14.0,30.20,NE,56,3.0,5.0,15,0.00,,,0.00,weatherlink.com 1.10,2013-02-16 23:00:00,
2013-02-16 16:15:00,62.5,12.0,30.20,NNE,22,2.0,4.0,14,0.00,,,0.00,weatherlink.com 1.10,2013-02-16 23:15:00,
2013-02-16 16:30:00,62.9,13.0,30.19,East,96,5.0,5.0,14,0.00,,,0.00,weatherlink.com 1.10,2013-02-16 23:30:00,
2013-02-16 16:45:00,63.7,10.0,30.18,West,260,0.0,4.0,12,0.00,,,0.00,weatherlink.com 1.10,2013-02-16 23:45:00,
2013-02-16 17:00:00,63.9,12.0,30.17,SW,215,0.0,4.0,13,0.00,,,0.00,weatherlink.com 1.10,2013-02-17 00:00:00,
2013-02-16 17:15:00,63.0,9.0,30.17,SSE,151,1.0,5.0,12,0.00,,,0.00,weatherlink.com 1.10,2013-02-17 00:15:00,
2013-02-16 17:30:00,60.7,9.0,30.17,WSW,243,2.0,6.0,13,0.00,,,0.00,weatherlink.com 1.10,2013-02-17 00:30:00,
2013-02-16 17:45:00,59.0,11.0,30.16,SW,228,2.0,3.0,15,0.00,,,0.00,weatherlink.com 1.10,2013-02-17 00:45:00,
2013-02-16 18:00:00,57.9,12.0,30.16,SSW,207,1.0,3.0,16,0.00,,,0.00,weatherlink.com 1.10,2013-02-17 01:00:00,
2013-02-16 18:15:00,55.9,11.0,30.16,SW,232,1.0,2.0,17,0.00,,,0.00,weatherlink.com 1.10,2013-02-17 01:15:00,
2013-02-16 18:31:00,54.5,10.0,30.17,SW,225,0.0,1.0,17,0.00,,,0.00,weatherlink.com 1.10,2013-02-17 01:31:00,
2013-02-16 18:45:00,52.4,11.0,30.17,SW,225,0.0,1.0,19,0.00,,,0.00,weatherlink.com 1.10,2013-02-17 01:45:00,
2013-02-16 19:00:00,51.2,11.0,30.17,West,269,0.0,2.0,20,0.00,,,0.00,weatherlink.com 1.10,2013-02-17 02:00:00,
2013-02-16 19:16:00,50.5,12.0,30.17,West,269,0.0,1.0,21,0.00,,,0.00,weatherlink.com 1.10,2013-02-17 02:16:00,
2013-02-16 19:30:00,49.0,11.0,30.17,West,269,0.0,1.0,22,0.00,,,0.00,weatherlink.com 1.10,2013-02-17 02:30:00,
2013-02-16 19:46:00,49.3,12.0,30.17,West,263,0.0,1.0,22,0.00,,,0.00,weatherlink.com 1.10,2013-02-17 02:46:00,
2013-02-16 20:00:00,48.3,12.0,30.17,West,264,1.0,1.0,23,0.00,,,0.00,weatherlink.com 1.10,2013-02-17 03:00:00,
2013-02-16 20:15:00,47.3,12.0,30.17,West,264,0.0,1.0,24,0.00,,,0.00,weatherlink.com 1.10,2013-02-17 03:15:00,
2013-02-16 20:30:00,46.4,13.0,30.17,West,264,0.0,1.0,26,0.00,,,0.00,weatherlink.com 1.10,2013-02-17 03:30:00,
2013-02-16 20:45:00,45.1,13.0,30.17,West,264,0.0,1.0,27,0.00,,,0.00,weatherlink.com 1.10,2013-02-17 03:45:00,
2013-02-16 21:00:00,44.4,12.0,30.17,West,264,0.0,0.0,27,0.00,,,0.00,weatherlink.com 1.10,2013-02-17 04:00:00,
2013-02-16 21:15:00,44.2,12.0,30.17,West,264,0.0,1.0,27,0.00,,,0.00,weatherlink.com 1.10,2013-02-17 04:15:00,
2013-02-16 21:31:00,42.9,12.0,30.17,West,264,0.0,1.0,28,0.00,,,0.00,weatherlink.com 1.10,2013-02-17 04:31:00,
2013-02-16 21:46:00,41.7,11.0,30.17,West,264,0.0,0.0,29,0.00,,,0.00,weatherlink.com 1.10,2013-02-17 04:46:00,
2013-02-16 22:00:00,41.3,12.0,30.17,West,264,0.0,0.0,30,0.00,,,0.00,weatherlink.com 1.10,2013-02-17 05:00:00,
2013-02-16 22:15:00,40.9,12.0,30.17,West,264,0.0,0.0,30,0.00,,,0.00,weatherlink.com 1.10,2013-02-17 05:15:00,
2013-02-16 22:30:00,39.4,12.0,30.17,West,264,0.0,0.0,32,0.00,,,0.00,weatherlink.com 1.10,2013-02-17 05:30:00,
2013-02-16 22:46:00,39.4,11.0,30.16,West,264,0.0,0.0,31,0.00,,,0.00,weatherlink.com 1.10,2013-02-17 05:46:00,
2013-02-16 23:01:00,38.7,11.0,30.16,West,264,0.0,0.0,32,0.00,,,0.00,weatherlink.com 1.10,2013-02-17 06:01:00,
2013-02-16 23:15:00,38.9,10.0,30.16,West,264,0.0,0.0,31,0.00,,,0.00,weatherlink.com 1.10,2013-02-17 06:15:00,
2013-02-16 23:31:00,37.7,10.0,30.16,West,264,0.0,0.0,32,0.00,,,0.00,weatherlink.com 1.10,2013-02-17 06:31:00,
2013-02-16 23:45:00,37.7,11.0,30.16,West,264,0.0,0.0,33,0.00,,,0.00,weatherlink.com 1.10,2013-02-17 06:45:00,